| time (UTC) | temp F | wind direction | speed MPH | gust MPH | rain 1hr in | rain 24hr in | rain mn in | humidity % | barometer mb |
| 20260510201043 | 72 | 154 | 11.0 | 0.0 | 0.00 | 0.00 | 0.00 | 16 | 1013.8 |
| 20260510200558 | 72 | 169 | 11.0 | 0.0 | 0.00 | 0.00 | 0.00 | 17 | 1013.9 |
| 20260510200009 | 72 | 198 | 11.0 | 0.0 | 0.00 | 0.00 | 0.00 | 17 | 1013.9 |
| 20260510195524 | 71 | 150 | 12.0 | 0.0 | 0.00 | 0.00 | 0.00 | 17 | 1014.0 |
| 20260510195034 | 71 | 167 | 13.0 | 0.0 | 0.00 | 0.00 | 0.00 | 17 | 1014.0 |
| 20260510194551 | 71 | 172 | 13.0 | 0.0 | 0.00 | 0.00 | 0.00 | 18 | 1014.0 |
| 20260510194003 | 70 | 208 | 12.0 | 0.0 | 0.00 | 0.00 | 0.00 | 17 | 1014.0 |
| 20260510193518 | 71 | 191 | 12.0 | 0.0 | 0.00 | 0.00 | 0.00 | 19 | 1014.1 |
| 20260510193034 | 71 | 168 | 12.0 | 0.0 | 0.00 | 0.00 | 0.00 | 19 | 1014.0 |
| 20260510192549 | 71 | 207 | 12.0 | 0.0 | 0.00 | 0.00 | 0.00 | 19 | 1014.2 |
| 20260510192001 | 70 | 151 | 11.0 | 0.0 | 0.00 | 0.00 | 0.00 | 19 | 1014.4 |
| 20260510191514 | 70 | 190 | 10.0 | 0.0 | 0.00 | 0.00 | 0.00 | 20 | 1014.4 |
| 20260510191030 | 70 | 195 | 12.0 | 0.0 | 0.00 | 0.00 | 0.00 | 20 | 1014.6 |
| 20260510190543 | 70 | 196 | 11.0 | 0.0 | 0.00 | 0.00 | 0.00 | 20 | 1014.4 |
| 20260510190103 | 70 | 147 | 11.0 | 0.0 | 0.00 | 0.00 | 0.00 | 21 | 1014.6 |
| 20260510185506 | 69 | 155 | 12.0 | 0.0 | 0.00 | 0.00 | 0.00 | 22 | 1014.8 |
| 20260510185023 | 69 | 136 | 14.0 | 0.0 | 0.00 | 0.00 | 0.00 | 21 | 1014.7 |
| 20260510184541 | 69 | 165 | 14.0 | 0.0 | 0.00 | 0.00 | 0.00 | 22 | 1014.7 |
| 20260510184054 | 69 | 190 | 14.0 | 0.0 | 0.00 | 0.00 | 0.00 | 21 | 1014.8 |
| 20260510183503 | 68 | 156 | 13.0 | 0.0 | 0.00 | 0.00 | 0.00 | 23 | 1014.8 |
| 20260510183021 | 68 | 138 | 14.0 | 0.0 | 0.00 | 0.00 | 0.00 | 23 | 1014.9 |
| 20260510182541 | 68 | 130 | 15.0 | 0.0 | 0.00 | 0.00 | 0.00 | 24 | 1015.0 |
| 20260510182056 | 68 | 196 | 15.0 | 0.0 | 0.00 | 0.00 | 0.00 | 22 | 1014.9 |
| 20260510181509 | 68 | 176 | 15.0 | 0.0 | 0.00 | 0.00 | 0.00 | 23 | 1015.0 |
| 20260510181025 | 68 | 148 | 16.0 | 0.0 | 0.00 | 0.00 | 0.00 | 23 | 1015.1 |
| 20260510180536 | 68 | 144 | 15.0 | 0.0 | 0.00 | 0.00 | 0.00 | 24 | 1015.2 |
| 20260510180056 | 68 | 127 | 14.0 | 0.0 | 0.00 | 0.00 | 0.00 | 24 | 1015.2 |
| 20260510175509 | 67 | 120 | 12.0 | 0.0 | 0.00 | 0.00 | 0.00 | 24 | 1015.3 |
| 20260510175022 | 67 | 189 | 13.0 | 0.0 | 0.00 | 0.00 | 0.00 | 25 | 1015.4 |
| 20260510174536 | 67 | 172 | 14.0 | 0.0 | 0.00 | 0.00 | 0.00 | 24 | 1015.5 |
| 20260510174050 | 66 | 157 | 14.0 | 0.0 | 0.00 | 0.00 | 0.00 | 25 | 1015.5 |
| 20260510173504 | 66 | 133 | 14.0 | 0.0 | 0.00 | 0.00 | 0.00 | 26 | 1015.5 |
| 20260510173016 | 66 | 178 | 14.0 | 0.0 | 0.00 | 0.00 | 0.00 | 26 | 1015.5 |
| 20260510172532 | 66 | 122 | 13.0 | 0.0 | 0.00 | 0.00 | 0.00 | 25 | 1015.6 |
| 20260510172045 | 65 | 114 | 14.0 | 0.0 | 0.00 | 0.00 | 0.00 | 26 | 1015.5 |
| 20260510171604 | 65 | 123 | 16.0 | 0.0 | 0.00 | 0.00 | 0.00 | 27 | 1015.5 |
| 20260510171010 | 65 | 168 | 14.0 | 0.0 | 0.00 | 0.00 | 0.00 | 27 | 1015.6 |
| 20260510170526 | 64 | 161 | 14.0 | 0.0 | 0.00 | 0.00 | 0.00 | 26 | 1015.6 |
| 20260510170101 | 64 | 138 | 15.0 | 0.0 | 0.00 | 0.00 | 0.00 | 27 | 1015.9 |
| 20260510165557 | 64 | 146 | 15.0 | 0.0 | 0.00 | 0.00 | 0.00 | 27 | 1016.0 |
| 20260510165007 | 64 | 149 | 14.0 | 0.0 | 0.00 | 0.00 | 0.00 | 27 | 1016.1 |
| 20260510164520 | 64 | 164 | 15.0 | 0.0 | 0.00 | 0.00 | 0.00 | 30 | 1016.0 |
| 20260510164034 | 63 | 161 | 15.0 | 0.0 | 0.00 | 0.00 | 0.00 | 29 | 1016.1 |
| 20260510163547 | 63 | 122 | 15.0 | 0.0 | 0.00 | 0.00 | 0.00 | 29 | 1016.2 |
| 20260510163059 | 63 | 168 | 15.0 | 0.0 | 0.00 | 0.00 | 0.00 | 30 | 1016.2 |
| 20260510162517 | 63 | 138 | 15.0 | 0.0 | 0.00 | 0.00 | 0.00 | 29 | 1016.4 |
| 20260510162030 | 63 | 143 | 15.0 | 0.0 | 0.00 | 0.00 | 0.00 | 29 | 1016.4 |
| 20260510161546 | 62 | 135 | 15.0 | 0.0 | 0.00 | 0.00 | 0.00 | 30 | 1016.4 |
| 20260510161103 | 62 | 173 | 15.0 | 0.0 | 0.00 | 0.00 | 0.00 | 29 | 1016.5 |
| 20260510160514 | 62 | 155 | 16.0 | 0.0 | 0.00 | 0.00 | 0.00 | 30 | 1016.5 |
| 20260510160030 | 62 | 129 | 16.0 | 0.0 | 0.00 | 0.00 | 0.00 | 31 | 1016.6 |
| 20260510155547 | 61 | 110 | 15.0 | 0.0 | 0.00 | 0.00 | 0.00 | 31 | 1016.6 |
| 20260510155002 | 61 | 159 | 14.0 | 0.0 | 0.00 | 0.00 | 0.00 | 30 | 1016.7 |
| 20260510154520 | 61 | 193 | 15.0 | 0.0 | 0.00 | 0.00 | 0.00 | 30 | 1016.8 |
| 20260510154036 | 61 | 144 | 14.0 | 0.0 | 0.00 | 0.00 | 0.00 | 32 | 1016.8 |
| 20260510153557 | 61 | 171 | 14.0 | 0.0 | 0.00 | 0.00 | 0.00 | 31 | 1016.9 |
| 20260510153029 | 60 | 147 | 15.0 | 0.0 | 0.00 | 0.00 | 0.00 | 31 | 1017.0 |
| 20260510152528 | 60 | 154 | 14.0 | 0.0 | 0.00 | 0.00 | 0.00 | 32 | 1017.0 |
| 20260510152044 | 60 | 165 | 13.0 | 0.0 | 0.00 | 0.00 | 0.00 | 32 | 1017.0 |
| 20260510151559 | 59 | 151 | 10.0 | 0.0 | 0.00 | 0.00 | 0.00 | 33 | 1017.1 |
| 20260510151012 | 57 | 144 | 4.0 | 0.0 | 0.00 | 0.00 | 0.00 | 37 | 1017.1 |
| 20260510150532 | 56 | 65 | 3.0 | 0.0 | 0.00 | 0.00 | 0.00 | 42 | 1017.3 |
| 20260510150048 | 55 | 33 | 4.0 | 0.0 | 0.00 | 0.00 | 0.00 | 44 | 1017.4 |
| 20260510145603 | 54 | 74 | 4.0 | 0.0 | 0.00 | 0.00 | 0.00 | 45 | 1017.4 |
| 20260510145018 | 54 | 76 | 5.0 | 0.0 | 0.00 | 0.00 | 0.00 | 45 | 1017.5 |
| 20260510144536 | 54 | 76 | 7.0 | 0.0 | 0.00 | 0.00 | 0.00 | 45 | 1017.5 |
| 20260510144055 | 54 | 126 | 9.0 | 0.0 | 0.00 | 0.00 | 0.00 | 45 | 1017.7 |
| 20260510143510 | 52 | 174 | 8.0 | 0.0 | 0.00 | 0.00 | 0.00 | 46 | 1017.5 |
| 20260510143023 | 52 | 166 | 7.0 | 0.0 | 0.00 | 0.00 | 0.00 | 47 | 1017.6 |
| 20260510142539 | 51 | 151 | 9.0 | 0.0 | 0.00 | 0.00 | 0.00 | 49 | 1017.7 |
| 20260510142055 | 50 | 186 | 10.0 | 0.0 | 0.00 | 0.00 | 0.00 | 50 | 1017.8 |
| 20260510141508 | 49 | 192 | 10.0 | 0.0 | 0.00 | 0.00 | 0.00 | 50 | 1017.8 |
| 20260510141025 | 49 | 186 | 10.0 | 0.0 | 0.00 | 0.00 | 0.00 | 50 | 1017.7 |
| 20260510140540 | 48 | 180 | 11.0 | 0.0 | 0.00 | 0.00 | 0.00 | 53 | 1017.5 |
| 20260510140055 | 46 | 177 | 11.0 | 0.0 | 0.00 | 0.00 | 0.00 | 55 | 1017.5 |
| 20260510135511 | 45 | 200 | 11.0 | 0.0 | 0.00 | 0.00 | 0.00 | 56 | 1017.6 |
| 20260510135029 | 44 | 179 | 10.0 | 0.0 | 0.00 | 0.00 | 0.00 | 56 | 1017.7 |
| 20260510134546 | 44 | 204 | 10.0 | 0.0 | 0.00 | 0.00 | 0.00 | 57 | 1017.8 |
| 20260510134059 | 44 | 201 | 9.0 | 0.0 | 0.00 | 0.00 | 0.00 | 58 | 1017.8 |
| 20260510133510 | 44 | 209 | 9.0 | 0.0 | 0.00 | 0.00 | 0.00 | 59 | 1017.9 |
| 20260510133026 | 43 | 178 | 8.0 | 0.0 | 0.00 | 0.00 | 0.00 | 61 | 1017.9 |
| 20260510132545 | 42 | 196 | 7.0 | 0.0 | 0.00 | 0.00 | 0.00 | 61 | 1018.0 |
| 20260510132102 | 41 | 194 | 7.0 | 0.0 | 0.00 | 0.00 | 0.00 | 64 | 1018.1 |
| 20260510131511 | 41 | 170 | 8.0 | 0.0 | 0.00 | 0.00 | 0.00 | 63 | 1018.2 |
| 20260510131027 | 40 | 207 | 8.0 | 0.0 | 0.00 | 0.00 | 0.00 | 65 | 1018.2 |
| 20260510130544 | 39 | 211 | 8.0 | 0.0 | 0.00 | 0.00 | 0.00 | 66 | 1018.3 |
| 20260510130101 | 38 | 196 | 8.0 | 0.0 | 0.00 | 0.00 | 0.00 | 66 | 1018.3 |
| 20260510125511 | 38 | 189 | 7.0 | 0.0 | 0.00 | 0.00 | 0.00 | 68 | 1018.3 |
| 20260510125030 | 37 | 173 | 5.0 | 0.0 | 0.00 | 0.00 | 0.00 | 69 | 1018.3 |
| 20260510124557 | 35 | 175 | 3.0 | 0.0 | 0.00 | 0.00 | 0.00 | 72 | 1018.3 |
| 20260510124104 | 34 | 162 | 2.0 | 0.0 | 0.00 | 0.00 | 0.00 | 69 | 1018.2 |
| 20260510123511 | 36 | 162 | 5.0 | 0.0 | 0.00 | 0.00 | 0.00 | 65 | 1018.2 |
| 20260510123024 | 37 | 162 | 9.0 | 0.0 | 0.00 | 0.00 | 0.00 | 68 | 1018.1 |
| 20260510122539 | 37 | 204 | 10.0 | 0.0 | 0.00 | 0.00 | 0.00 | 68 | 1018.0 |
| 20260510122054 | 37 | 202 | 9.0 | 0.0 | 0.00 | 0.00 | 0.00 | 68 | 1017.9 |
| 20260510121506 | 37 | 194 | 8.0 | 0.0 | 0.00 | 0.00 | 0.00 | 68 | 1017.9 |
| 20260510121022 | 37 | 204 | 9.0 | 0.0 | 0.00 | 0.00 | 0.00 | 67 | 1017.9 |
| 20260510120538 | 37 | 206 | 10.0 | 0.0 | 0.00 | 0.00 | 0.00 | 67 | 1018.2 |
| 20260510120052 | 37 | 208 | 10.0 | 0.0 | 0.00 | 0.00 | 0.00 | 68 | 1018.0 |
| 20260510115507 | 36 | 211 | 10.0 | 0.0 | 0.00 | 0.00 | 0.00 | 68 | 1018.0 |
| 20260510115024 | 36 | 209 | 9.0 | 0.0 | 0.00 | 0.00 | 0.00 | 69 | 1017.9 |
| 20260510114543 | 36 | 218 | 8.0 | 0.0 | 0.00 | 0.00 | 0.00 | 69 | 1017.9 |
| 20260510114101 | 36 | 185 | 9.0 | 0.0 | 0.00 | 0.00 | 0.00 | 69 | 1018.0 |
| 20260510113514 | 36 | 183 | 11.0 | 0.0 | 0.00 | 0.00 | 0.00 | 68 | 1017.8 |
| 20260510113040 | 36 | 192 | 11.0 | 0.0 | 0.00 | 0.00 | 0.00 | 68 | 1017.7 |
| 20260510112556 | 37 | 194 | 11.0 | 0.0 | 0.00 | 0.00 | 0.00 | 67 | 1017.6 |
| 20260510112007 | 37 | 190 | 8.0 | 0.0 | 0.00 | 0.00 | 0.00 | 67 | 1017.6 |
| 20260510111524 | 36 | 196 | 4.0 | 0.0 | 0.00 | 0.00 | 0.00 | 69 | 1017.7 |
| 20260510111041 | 36 | 174 | 3.0 | 0.0 | 0.00 | 0.00 | 0.00 | 68 | 1017.7 |
| 20260510110558 | 37 | 158 | 4.0 | 0.0 | 0.00 | 0.00 | 0.00 | 67 | 1017.8 |
| 20260510110022 | 37 | 158 | 7.0 | 0.0 | 0.00 | 0.00 | 0.00 | 67 | 1017.7 |
| 20260510105529 | 37 | 179 | 9.0 | 0.0 | 0.00 | 0.00 | 0.00 | 68 | 1017.8 |
| 20260510105049 | 37 | 185 | 9.0 | 0.0 | 0.00 | 0.00 | 0.00 | 68 | 1017.6 |
| 20260510104605 | 37 | 200 | 9.0 | 0.0 | 0.00 | 0.00 | 0.00 | 68 | 1017.7 |
| 20260510104018 | 36 | 205 | 7.0 | 0.0 | 0.00 | 0.00 | 0.00 | 69 | 1017.8 |
| 20260510103534 | 36 | 200 | 7.0 | 0.0 | 0.00 | 0.00 | 0.00 | 69 | 1017.8 |
| 20260510103054 | 36 | 194 | 7.0 | 0.0 | 0.00 | 0.00 | 0.00 | 71 | 1017.9 |
| 20260510102505 | 35 | 187 | 6.0 | 0.0 | 0.00 | 0.00 | 0.00 | 70 | 1017.9 |
| 20260510102020 | 36 | 190 | 5.0 | 0.0 | 0.00 | 0.00 | 0.00 | 69 | 1017.9 |
| 20260510101539 | 36 | 178 | 5.0 | 0.0 | 0.00 | 0.00 | 0.00 | 69 | 1017.8 |
| 20260510101050 | 36 | 167 | 6.0 | 0.0 | 0.00 | 0.00 | 0.00 | 68 | 1017.7 |
| 20260510100604 | 37 | 182 | 8.0 | 0.0 | 0.00 | 0.00 | 0.00 | 68 | 1017.7 |
| 20260510100021 | 37 | 200 | 8.0 | 0.0 | 0.00 | 0.00 | 0.00 | 68 | 1017.6 |
| 20260510095528 | 37 | 202 | 8.0 | 0.0 | 0.00 | 0.00 | 0.00 | 68 | 1017.4 |
| 20260510095048 | 37 | 196 | 8.0 | 0.0 | 0.00 | 0.00 | 0.00 | 67 | 1017.5 |
| 20260510094603 | 37 | 161 | 8.0 | 0.0 | 0.00 | 0.00 | 0.00 | 66 | 1017.6 |
| 20260510094012 | 38 | 189 | 8.0 | 0.0 | 0.00 | 0.00 | 0.00 | 66 | 1017.6 |
| 20260510093526 | 38 | 192 | 8.0 | 0.0 | 0.00 | 0.00 | 0.00 | 65 | 1017.3 |
| 20260510093042 | 38 | 193 | 9.0 | 0.0 | 0.00 | 0.00 | 0.00 | 65 | 1017.2 |
| 20260510092600 | 38 | 192 | 9.0 | 0.0 | 0.00 | 0.00 | 0.00 | 66 | 1017.2 |
| 20260510092013 | 38 | 195 | 7.0 | 0.0 | 0.00 | 0.00 | 0.00 | 66 | 1017.2 |
| 20260510091538 | 38 | 192 | 6.0 | 0.0 | 0.00 | 0.00 | 0.00 | 66 | 1017.2 |
| 20260510091058 | 37 | 190 | 6.0 | 0.0 | 0.00 | 0.00 | 0.00 | 67 | 1017.2 |
| 20260510090511 | 38 | 159 | 7.0 | 0.0 | 0.00 | 0.00 | 0.00 | 66 | 1017.3 |
| 20260510090033 | 38 | 162 | 7.0 | 0.0 | 0.00 | 0.00 | 0.00 | 65 | 1017.3 |
| 20260510085549 | 38 | 149 | 8.0 | 0.0 | 0.00 | 0.00 | 0.00 | 65 | 1017.2 |
| 20260510085002 | 39 | 136 | 9.0 | 0.0 | 0.00 | 0.00 | 0.00 | 63 | 1017.2 |
| 20260510084520 | 39 | 190 | 10.0 | 0.0 | 0.00 | 0.00 | 0.00 | 63 | 1017.3 |
| 20260510084038 | 40 | 200 | 10.0 | 0.0 | 0.00 | 0.00 | 0.00 | 62 | 1017.1 |
| 20260510083558 | 40 | 202 | 11.0 | 0.0 | 0.00 | 0.00 | 0.00 | 62 | 1017.1 |
| 20260510083013 | 40 | 186 | 11.0 | 0.0 | 0.00 | 0.00 | 0.00 | 62 | 1017.1 |
| 20260510082532 | 40 | 193 | 10.0 | 0.0 | 0.00 | 0.00 | 0.00 | 64 | 1017.1 |
| 20260510082055 | 39 | 192 | 9.0 | 0.0 | 0.00 | 0.00 | 0.00 | 65 | 1017.0 |
| 20260510081517 | 39 | 207 | 9.0 | 0.0 | 0.00 | 0.00 | 0.00 | 65 | 1017.0 |
| 20260510081036 | 39 | 199 | 9.0 | 0.0 | 0.00 | 0.00 | 0.00 | 66 | 1017.0 |
| 20260510080559 | 38 | 209 | 9.0 | 0.0 | 0.00 | 0.00 | 0.00 | 66 | 1017.0 |
| 20260510080013 | 38 | 194 | 8.0 | 0.0 | 0.00 | 0.00 | 0.00 | 67 | 1016.9 |
| 20260510075534 | 38 | 178 | 8.0 | 0.0 | 0.00 | 0.00 | 0.00 | 67 | 1016.9 |
| 20260510075053 | 38 | 205 | 7.0 | 0.0 | 0.00 | 0.00 | 0.00 | 66 | 1016.8 |
| 20260510074512 | 38 | 188 | 6.0 | 0.0 | 0.00 | 0.00 | 0.00 | 66 | 1016.8 |
| 20260510074031 | 38 | 188 | 7.0 | 0.0 | 0.00 | 0.00 | 0.00 | 66 | 1016.8 |
| 20260510073550 | 39 | 198 | 7.0 | 0.0 | 0.00 | 0.00 | 0.00 | 64 | 1016.8 |
| 20260510073012 | 40 | 197 | 7.0 | 0.0 | 0.00 | 0.00 | 0.00 | 62 | 1016.7 |
| 20260510072530 | 41 | 188 | 8.0 | 0.0 | 0.00 | 0.00 | 0.00 | 61 | 1016.8 |
| 20260510072056 | 41 | 186 | 8.0 | 0.0 | 0.00 | 0.00 | 0.00 | 61 | 1016.8 |
| 20260510071518 | 40 | 194 | 8.0 | 0.0 | 0.00 | 0.00 | 0.00 | 62 | 1016.6 |
| 20260510071033 | 40 | 190 | 7.0 | 0.0 | 0.00 | 0.00 | 0.00 | 63 | 1016.6 |
| 20260510070551 | 40 | 200 | 6.0 | 0.0 | 0.00 | 0.00 | 0.00 | 64 | 1016.7 |
| 20260510070010 | 39 | 182 | 6.0 | 0.0 | 0.00 | 0.00 | 0.00 | 66 | 1016.6 |
| 20260510065530 | 39 | 177 | 7.0 | 0.0 | 0.00 | 0.00 | 0.00 | 64 | 1016.6 |
| 20260510065054 | 39 | 179 | 8.0 | 0.0 | 0.00 | 0.00 | 0.00 | 64 | 1016.6 |
| 20260510064522 | 39 | 200 | 7.0 | 0.0 | 0.00 | 0.00 | 0.00 | 66 | 1016.4 |
| 20260510064028 | 38 | 193 | 6.0 | 0.0 | 0.00 | 0.00 | 0.00 | 68 | 1016.3 |
| 20260510063552 | 38 | 184 | 4.0 | 0.0 | 0.00 | 0.00 | 0.00 | 67 | 1016.2 |
| 20260510063014 | 38 | 181 | 5.0 | 0.0 | 0.00 | 0.00 | 0.00 | 66 | 1016.3 |
| 20260510062538 | 39 | 184 | 6.0 | 0.0 | 0.00 | 0.00 | 0.00 | 66 | 1016.2 |
| 20260510062103 | 39 | 189 | 6.0 | 0.0 | 0.00 | 0.00 | 0.00 | 66 | 1016.2 |
| 20260510061524 | 39 | 193 | 6.0 | 0.0 | 0.00 | 0.00 | 0.00 | 65 | 1016.2 |
| 20260510061047 | 39 | 188 | 6.0 | 0.0 | 0.00 | 0.00 | 0.00 | 64 | 1016.2 |
| 20260510060506 | 40 | 184 | 6.0 | 0.0 | 0.00 | 0.00 | 0.00 | 63 | 1016.2 |
| 20260510060032 | 40 | 194 | 6.0 | 0.0 | 0.00 | 0.00 | 0.00 | 62 | 1016.2 |
| 20260510055554 | 40 | 184 | 6.0 | 0.0 | 0.00 | 0.00 | 0.00 | 64 | 1016.2 |
| 20260510055010 | 38 | 189 | 6.0 | 0.0 | 0.00 | 0.00 | 0.00 | 65 | 1016.0 |
| 20260510054536 | 38 | 183 | 6.0 | 0.0 | 0.00 | 0.00 | 0.00 | 65 | 1015.8 |
| 20260510054100 | 38 | 182 | 6.0 | 0.0 | 0.00 | 0.00 | 0.00 | 65 | 1015.8 |
| 20260510053521 | 38 | 184 | 6.0 | 0.0 | 0.00 | 0.00 | 0.00 | 67 | 1015.7 |
| 20260510053044 | 38 | 171 | 5.0 | 0.0 | 0.00 | 0.00 | 0.00 | 67 | 1015.8 |
| 20260510052501 | 38 | 186 | 5.0 | 0.0 | 0.00 | 0.00 | 0.00 | 67 | 1015.7 |
| 20260510052024 | 38 | 178 | 6.0 | 0.0 | 0.00 | 0.00 | 0.00 | 66 | 1015.8 |
| 20260510051553 | 38 | 169 | 5.0 | 0.0 | 0.00 | 0.00 | 0.00 | 67 | 1015.8 |
| 20260510051009 | 37 | 169 | 5.0 | 0.0 | 0.00 | 0.00 | 0.00 | 67 | 1015.9 |
| 20260510050532 | 37 | 169 | 6.0 | 0.0 | 0.00 | 0.00 | 0.00 | 67 | 1015.9 |
| 20260510050055 | 38 | 155 | 5.0 | 0.0 | 0.00 | 0.00 | 0.00 | 66 | 1015.9 |
| 20260510045519 | 37 | 179 | 6.0 | 0.0 | 0.00 | 0.00 | 0.00 | 67 | 1015.9 |
| 20260510045041 | 37 | 175 | 7.0 | 0.0 | 0.00 | 0.00 | 0.00 | 67 | 1015.9 |
| 20260510044500 | 38 | 167 | 6.0 | 0.0 | 0.00 | 0.00 | 0.00 | 66 | 1015.8 |
| 20260510044024 | 39 | 170 | 6.0 | 0.0 | 0.00 | 0.00 | 0.00 | 65 | 1015.8 |
| 20260510043548 | 39 | 190 | 5.0 | 0.0 | 0.00 | 0.00 | 0.00 | 65 | 1015.7 |
| 20260510043008 | 39 | 207 | 6.0 | 0.0 | 0.00 | 0.00 | 0.00 | 66 | 1015.8 |
| 20260510042534 | 39 | 205 | 6.0 | 0.0 | 0.00 | 0.00 | 0.00 | 66 | 1015.7 |
| 20260510042102 | 39 | 201 | 6.0 | 0.0 | 0.00 | 0.00 | 0.00 | 65 | 1015.6 |
| 20260510041518 | 40 | 200 | 5.0 | 0.0 | 0.00 | 0.00 | 0.00 | 60 | 1015.5 |
| 20260510041044 | 42 | 196 | 5.0 | 0.0 | 0.00 | 0.00 | 0.00 | 55 | 1015.4 |
| 20260510040506 | 44 | 201 | 5.0 | 0.0 | 0.00 | 0.00 | 0.00 | 52 | 1015.2 |
| 20260510040033 | 46 | 202 | 5.0 | 0.0 | 0.00 | 0.00 | 0.00 | 50 | 1015.2 |
| 20260510035558 | 46 | 225 | 5.0 | 0.0 | 0.00 | 0.00 | 0.00 | 50 | 1015.1 |
| 20260510035019 | 45 | 321 | 5.0 | 0.0 | 0.00 | 0.00 | 0.00 | 52 | 1015.0 |
| 20260510034546 | 44 | 321 | 4.0 | 0.0 | 0.00 | 0.00 | 0.00 | 53 | 1014.9 |
| 20260510034000 | 44 | 321 | 4.0 | 0.0 | 0.00 | 0.00 | 0.00 | 52 | 1014.7 |
| 20260510033526 | 44 | 321 | 4.0 | 0.0 | 0.00 | 0.00 | 0.00 | 52 | 1014.6 |
| 20260510033117 | 45 | 321 | 5.0 | 0.0 | 0.00 | 0.00 | 0.00 | 51 | 1014.6 |
| 20260510032517 | 46 | 321 | 4.0 | 0.0 | 0.00 | 0.00 | 0.00 | 50 | 1014.4 |
| 20260510032042 | 48 | 321 | 2.0 | 0.0 | 0.00 | 0.00 | 0.00 | 48 | 1014.3 |
| 20260510031502 | 49 | 321 | 1.0 | 0.0 | 0.00 | 0.00 | 0.00 | 44 | 1014.1 |
| 20260510031026 | 50 | 321 | 2.0 | 0.0 | 0.00 | 0.00 | 0.00 | 43 | 1014.0 |
| 20260510030548 | 51 | 321 | 2.0 | 0.0 | 0.00 | 0.00 | 0.00 | 42 | 1014.0 |
| 20260510030022 | 53 | 321 | 3.0 | 0.0 | 0.00 | 0.00 | 0.00 | 40 | 1013.9 |
| 20260510025537 | 53 | 321 | 3.0 | 0.0 | 0.00 | 0.00 | 0.00 | 39 | 1013.8 |
| 20260510025004 | 54 | 321 | 2.0 | 0.0 | 0.00 | 0.00 | 0.00 | 38 | 1013.7 |
| 20260510024528 | 54 | 321 | 2.0 | 0.0 | 0.00 | 0.00 | 0.00 | 37 | 1013.6 |
| 20260510024059 | 55 | 321 | 2.0 | 0.0 | 0.00 | 0.00 | 0.00 | 37 | 1013.5 |
| 20260510023524 | 55 | 321 | 2.0 | 0.0 | 0.00 | 0.00 | 0.00 | 35 | 1013.5 |
| 20260510023049 | 56 | 321 | 2.0 | 0.0 | 0.00 | 0.00 | 0.00 | 35 | 1013.5 |
| 20260510022520 | 56 | 321 | 3.0 | 0.0 | 0.00 | 0.00 | 0.00 | 35 | 1013.5 |
| 20260510022044 | 57 | 321 | 4.0 | 0.0 | 0.00 | 0.00 | 0.00 | 34 | 1013.4 |
| 20260510021517 | 58 | 321 | 4.0 | 0.0 | 0.00 | 0.00 | 0.00 | 35 | 1013.4 |
| 20260510021036 | 58 | 321 | 5.0 | 0.0 | 0.00 | 0.00 | 0.00 | 33 | 1013.4 |
| 20260510020504 | 59 | 326 | 6.0 | 0.0 | 0.00 | 0.00 | 0.00 | 32 | 1013.2 |
| 20260510020032 | 59 | 329 | 6.0 | 0.0 | 0.00 | 0.00 | 0.00 | 30 | 1013.2 |
| 20260510015600 | 59 | 329 | 6.0 | 0.0 | 0.00 | 0.00 | 0.00 | 29 | 1013.2 |
| 20260510015027 | 59 | 319 | 6.0 | 0.0 | 0.00 | 0.00 | 0.00 | 30 | 1013.1 |
| 20260510014557 | 59 | 313 | 6.0 | 0.0 | 0.00 | 0.00 | 0.00 | 30 | 1013.2 |
| 20260510014021 | 59 | 318 | 6.0 | 0.0 | 0.00 | 0.00 | 0.00 | 30 | 1013.2 |
| 20260510013549 | 59 | 329 | 6.0 | 0.0 | 0.00 | 0.00 | 0.00 | 29 | 1013.2 |
| 20260510013014 | 59 | 340 | 6.0 | 0.0 | 0.00 | 0.00 | 0.00 | 30 | 1013.1 |
| 20260510012549 | 59 | 316 | 7.0 | 0.0 | 0.00 | 0.00 | 0.00 | 29 | 1013.1 |
| 20260510012015 | 60 | 330 | 7.0 | 0.0 | 0.00 | 0.00 | 0.00 | 29 | 1013.0 |
| 20260510011548 | 60 | 329 | 5.0 | 0.0 | 0.00 | 0.00 | 0.00 | 29 | 1013.0 |
| 20260510011013 | 59 | 29 | 3.0 | 0.0 | 0.00 | 0.00 | 0.00 | 30 | 1013.0 |
| 20260510010547 | 59 | 27 | 4.0 | 0.0 | 0.00 | 0.00 | 0.00 | 29 | 1013.0 |
| 20260510010016 | 59 | 34 | 5.0 | 0.0 | 0.00 | 0.00 | 0.00 | 29 | 1013.0 |
| 20260510005546 | 59 | 28 | 6.0 | 0.0 | 0.00 | 0.00 | 0.00 | 30 | 1013.1 |
| 20260510005018 | 59 | 346 | 7.0 | 0.0 | 0.00 | 0.00 | 0.00 | 30 | 1013.0 |
| 20260510004545 | 59 | 339 | 8.0 | 0.0 | 0.00 | 0.00 | 0.00 | 29 | 1013.0 |
| 20260510004026 | 59 | 324 | 7.0 | 0.0 | 0.00 | 0.00 | 0.00 | 29 | 1012.9 |
| 20260510003553 | 59 | 355 | 8.0 | 0.0 | 0.00 | 0.00 | 0.00 | 29 | 1012.9 |
| 20260510003020 | 59 | 360 | 9.0 | 0.0 | 0.00 | 0.00 | 0.00 | 28 | 1012.9 |
| 20260510002552 | 60 | 350 | 9.0 | 0.0 | 0.00 | 0.00 | 0.00 | 28 | 1012.9 |
| 20260510002021 | 60 | 360 | 9.0 | 0.0 | 0.00 | 0.00 | 0.00 | 28 | 1012.9 |
| 20260510001556 | 60 | 19 | 10.0 | 0.0 | 0.00 | 0.00 | 0.00 | 27 | 1012.9 |
| 20260510001022 | 60 | 351 | 11.0 | 0.0 | 0.00 | 0.00 | 0.00 | 28 | 1012.7 |
| 20260510000558 | 60 | 344 | 10.0 | 0.0 | 0.00 | 0.00 | 0.00 | 27 | 1012.7 |
| 20260510000035 | 61 | 355 | 9.0 | 0.0 | 0.00 | 0.00 | 0.00 | 27 | 1012.6 |
| 20260509235604 | 61 | 323 | 10.0 | 0.0 | 0.00 | 0.00 | 0.00 | 25 | 1012.5 |
| 20260509235030 | 61 | 355 | 9.0 | 0.0 | 0.00 | 0.00 | 0.00 | 27 | 1012.6 |
| 20260509234519 | 62 | 300 | 8.0 | 0.0 | 0.00 | 0.00 | 0.00 | 26 | 1012.6 |
| 20260509234038 | 61 | 355 | 7.0 | 0.0 | 0.00 | 0.00 | 0.00 | 26 | 1012.6 |
| 20260509233505 | 61 | 24 | 8.0 | 0.0 | 0.00 | 0.00 | 0.00 | 28 | 1012.5 |
| 20260509233042 | 61 | 5 | 8.0 | 0.0 | 0.00 | 0.00 | 0.00 | 27 | 1012.6 |
| 20260509232512 | 61 | 331 | 6.0 | 0.0 | 0.00 | 0.00 | 0.00 | 27 | 1012.5 |
| 20260509232045 | 61 | 355 | 8.0 | 0.0 | 0.00 | 0.00 | 0.00 | 27 | 1012.6 |
| 20260509231517 | 61 | 355 | 10.0 | 0.0 | 0.00 | 0.00 | 0.00 | 26 | 1012.6 |
| 20260509231052 | 62 | 331 | 9.0 | 0.0 | 0.00 | 0.00 | 0.00 | 27 | 1012.6 |
| 20260509230526 | 61 | 330 | 10.0 | 0.0 | 0.00 | 0.00 | 0.00 | 28 | 1012.5 |
| 20260509230105 | 61 | 11 | 11.0 | 0.0 | 0.00 | 0.00 | 0.00 | 27 | 1012.6 |
| 20260509225535 | 61 | 360 | 10.0 | 0.0 | 0.00 | 0.00 | 0.00 | 28 | 1012.4 |
| 20260509225008 | 60 | 355 | 10.0 | 0.0 | 0.00 | 0.00 | 0.00 | 27 | 1012.4 |
| 20260509224555 | 60 | 348 | 8.0 | 0.0 | 0.00 | 0.00 | 0.00 | 27 | 1012.4 |
| 20260509224019 | 61 | 17 | 8.0 | 0.0 | 0.00 | 0.00 | 0.00 | 27 | 1012.4 |
| 20260509223553 | 61 | 345 | 10.0 | 0.0 | 0.00 | 0.00 | 0.00 | 26 | 1012.4 |
| 20260509223025 | 61 | 19 | 11.0 | 0.0 | 0.00 | 0.00 | 0.00 | 26 | 1012.4 |
| 20260509222601 | 60 | 15 | 10.0 | 0.0 | 0.00 | 0.00 | 0.00 | 27 | 1012.4 |
| 20260509222036 | 61 | 349 | 8.0 | 0.0 | 0.00 | 0.00 | 0.00 | 26 | 1012.4 |
| 20260509221510 | 61 | 311 | 8.0 | 0.0 | 0.00 | 0.00 | 0.00 | 27 | 1012.3 |
| 20260509221045 | 60 | 5 | 10.0 | 0.0 | 0.00 | 0.00 | 0.00 | 26 | 1012.5 |
| 20260509220517 | 61 | 5 | 11.0 | 0.0 | 0.00 | 0.00 | 0.00 | 26 | 1012.4 |
| 20260509220052 | 61 | 335 | 9.0 | 0.0 | 0.00 | 0.00 | 0.00 | 28 | 1012.3 |
| 20260509215526 | 60 | 348 | 8.0 | 0.0 | 0.00 | 0.00 | 0.00 | 27 | 1012.3 |
| 20260509215002 | 60 | 18 | 7.0 | 0.0 | 0.00 | 0.00 | 0.00 | 27 | 1012.5 |
| 20260509214543 | 60 | 44 | 8.0 | 0.0 | 0.00 | 0.00 | 0.00 | 27 | 1012.4 |
| 20260509214022 | 60 | 271 | 9.0 | 0.0 | 0.00 | 0.00 | 0.00 | 27 | 1012.5 |
| 20260509213603 | 61 | 322 | 10.0 | 0.0 | 0.00 | 0.00 | 0.00 | 27 | 1012.4 |
| 20260509213034 | 60 | 14 | 10.0 | 0.0 | 0.00 | 0.00 | 0.00 | 29 | 1012.5 |
| 20260509212509 | 60 | 360 | 12.0 | 0.0 | 0.00 | 0.00 | 0.00 | 28 | 1012.4 |
| 20260509212046 | 60 | 5 | 11.0 | 0.0 | 0.00 | 0.00 | 0.00 | 28 | 1012.3 |
| 20260509211520 | 60 | 360 | 10.0 | 0.0 | 0.00 | 0.00 | 0.00 | 28 | 1012.4 |
| 20260509211103 | 60 | 342 | 11.0 | 0.0 | 0.00 | 0.00 | 0.00 | 27 | 1012.4 |
| 20260509210537 | 60 | 355 | 8.0 | 0.0 | 0.00 | 0.00 | 0.00 | 29 | 1012.3 |
| 20260509210014 | 59 | 31 | 7.0 | 0.0 | 0.00 | 0.00 | 0.00 | 27 | 1012.3 |
| 20260509205552 | 60 | 317 | 7.0 | 0.0 | 0.00 | 0.00 | 0.00 | 26 | 1012.4 |
| 20260509205028 | 59 | 9 | 5.0 | 0.0 | 0.00 | 0.00 | 0.00 | 28 | 1012.4 |
| 20260509204503 | 59 | 55 | 6.0 | 0.0 | 0.00 | 0.00 | 0.00 | 28 | 1012.4 |
| 20260509204042 | 59 | 40 | 8.0 | 0.0 | 0.00 | 0.00 | 0.00 | 28 | 1012.5 |
| 20260509203514 | 59 | 266 | 8.0 | 0.0 | 0.00 | 0.00 | 0.00 | 27 | 1012.3 |
| 20260509203101 | 59 | 338 | 8.0 | 0.0 | 0.00 | 0.00 | 0.00 | 27 | 1012.3 |
| 20260509202527 | 59 | 333 | 9.0 | 0.0 | 0.00 | 0.00 | 0.00 | 27 | 1012.5 |
| 20260509202107 | 59 | 16 | 6.0 | 0.0 | 0.00 | 0.00 | 0.00 | 29 | 1012.4 |
| 20260509201539 | 58 | 311 | 7.0 | 0.0 | 0.00 | 0.00 | 0.00 | 28 | 1012.3 |